Starlink 31261

operational
NORAD ID: 59084 Int'l Des: 2024-041 Owner: SPXS Country: US Constellation: starlink
LEOCIRCULAR

关于 Starlink 31261

正在加载描述...

实时位置

正在加载3D地球...

即将过境

高度历史

Altitude vs Time

uPlot chart will show altitude changes over time

两行轨道根数

1 59084U 24041L 25351.26346317 -.00000439 00000-0 -64241-5 0 9995
2 59084 42.9999 56.3585 0001342 269.5736 90.4962 15.27586927101712
Epoch: Dec 17, 2025 • Age: 8 hours

当前状态

高度 491.2 km
速度 7.62 km/s
星下点 -32.22°S, 76.68°E
发射日期 Feb 29, 2024
运行时间 1.7 years
类型 internet

技术详情

分类 Payload
质量 730.00 kg
干质量 700.00 kg
总质量 730.00 kg
长度 0.30 m
直径 4.10 m
跨度 29.00 m
形状 Box + pan
制造商 SPXS
平台类型 Starlink V2M
阶段状态 In Orbit
所有者/国家 SPXS/US

大型星座

Loading constellations...